Regional Weather Roundup
Issued by NWS Albany, NY

Home | Current Version | Previous Version | Text Only | Print | Product List | Glossary On
Versions: 1 2 3 4 5 6 7 8 9 10 11 12 13 14 15 16 17 18 19 20 21 22 23 24 25 26 27 28 29 30 31 32 33 34 35 36 37 38 39 40 41 42 43 44 45 46 47 48 49 50
000
ASUS41 KALY 010210
RWRALY

NEW YORK STATE HOURLY WEATHER ROUNDUP
NATIONAL WEATHER SERVICE ALBANY NY
1000 PM EDT THU JUL 31 2014

NOTE: "FAIR" INDICATES FEW OR NO CLOUDS BELOW 12,000 FEET WITH NO
SIGNIFICANT WEATHER AND/OR NO OBSTRUCTIONS TO VISIBILITY.

NYZ032-033-038>043-046>054-057>066-NYZ062>081-010300-
EAST


CITY           SKY/WX    TMP DP  RH WIND       PRES   REMARKS
ALBANY         PTCLDY    68  64  87 CALM      30.12R
GLENS FALLS    PTCLDY    65  61  87 CALM      30.12R
POUGHKEEPSIE   PTCLDY    68  64  87 CALM      30.12R
NEWBURGH       PTCLDY    72  61  68 VRB5      30.15R
MONTGOMERY     CLEAR     65  60  84 CALM      30.13R
WHITE PLAINS   CLEAR     70  64  81 CALM      30.14R
ISLIP          PTCLDY    74  67  78 S8        30.15R
NEW YORK CITY  MOCLDY    76  66  71 S5        30.13R
CENTRAL PARK   PTCLDY    75  64  68 CALM      30.16R
$$

NYZ005>009-017-018-044>046-055-056-010300-
CENTRAL


CITY           SKY/WX    TMP DP  RH WIND       PRES   REMARKS
FULTON         CLEAR     62  58  86 SE3       30.09R
SYRACUSE       MOCLDY    64  61  90 E5        30.10R
ROME           PTCLDY    60  59  96 E5        30.13R
ELMIRA         CLEAR     61  57  87 CALM      30.11R
BINGHAMTON     CLEAR     66  57  72 S7        30.14R
MONTICELLO     CLEAR     64  61  88 CALM      30.18R
$$

NYZ026>034-041>043-010300-
NORTH


CITY           SKY/WX    TMP DP  RH WIND       PRES   REMARKS
WATERTOWN      CLEAR     64  55  72 S5        30.07R
FORT DRUM      NOT AVBL
MASSENA        CLEAR     56  55  97 CALM      30.06R
SARANAC LAKE   CLEAR     52  51  97 CALM      30.11R
PLATTSBURGH    CLEAR     59  59 100 CALM      30.08R FOG
$$

NYZ001>004-010>016-019>021-010300-
WEST


CITY           SKY/WX    TMP DP  RH WIND       PRES   REMARKS
NIAGARA FALLS  PTCLDY    64  55  72 SW6       30.07R
BUFFALO        PTCLDY    65  53  65 S8        30.09R
DUNKIRK        CLEAR     59  52  77 S5        30.09R
JAMESTOWN      CLEAR     61  54  77 CALM      30.13S
WELLSVILLE     CLEAR     64  50  60 W5        30.17R
ROCHESTER      PTCLDY    65  51  60 SW5       30.09R
PENN YAN       PTCLDY    64  58  80 CALM      30.11R
$$

             KEY
       WCI = WIND CHILL INDEX
       VSB = VISIBILITY
       HX  = HEAT INDEX
$$


USA.gov is the U.S. government's official web portal to all federal, state and local government web resources and services.